Time,TemperatureF,DewpointF,PressureIn,WindDirection,WindDirectionDegrees,WindSpeedMPH,WindSpeedGustMPH,Humidity,HourlyPrecipIn,Conditions,Clouds,dailyrainin,SolarRadiationWatts/m^2,SoftwareType,DateUTC
2013-04-24 00:00:00,40.1,36.3,30.12,East,88,0.0,0.0,86,0.00,,---,0.00,0.00,VWS V14.00,2013-04-24 04:00:00,
2013-04-24 00:01:00,40.1,36.3,30.12,SE,136,0.0,0.0,86,0.00,,---,0.00,0.00,VWS V14.00,2013-04-24 04:01:00,
2013-04-24 00:07:00,40.3,36.5,30.11,East,89,0.0,0.0,86,0.00,,---,0.00,0.00,VWS V14.00,2013-04-24 04:07:00,
2013-04-24 00:12:00,40.4,36.5,30.11,East,84,0.0,0.0,86,0.00,,---,0.00,0.00,VWS V14.00,2013-04-24 04:12:00,
2013-04-24 00:17:00,40.5,36.7,30.11,SE,128,0.0,0.0,86,0.00,,---,0.00,0.00,VWS V14.00,2013-04-24 04:17:00,
2013-04-24 00:22:00,40.5,36.7,30.12,South,169,0.0,0.0,86,0.00,,---,0.00,0.00,VWS V14.00,2013-04-24 04:22:00,
2013-04-24 00:27:00,40.5,36.7,30.12,South,169,0.0,0.0,86,0.00,,---,0.00,0.00,VWS V14.00,2013-04-24 04:27:00,
2013-04-24 00:30:00,32.6,25.6,30.46,East,84,1.0,21.0,75,0.00,,---,0.00,0.00,VWS V14.00,2013-04-24 04:30:00,
2013-04-24 00:32:00,40.4,36.5,30.11,NE,52,0.0,0.0,86,0.00,,---,0.00,0.00,VWS V14.00,2013-04-24 04:32:00,
2013-04-24 00:37:00,40.4,36.5,30.11,South,179,0.0,0.0,86,0.00,,---,0.00,0.00,VWS V14.00,2013-04-24 04:37:00,
2013-04-24 00:42:00,40.4,36.8,30.10,SE,136,0.0,0.0,87,0.00,,---,0.00,0.00,VWS V14.00,2013-04-24 04:42:00,
2013-04-24 00:47:00,40.6,37.0,30.10,SSE,161,0.0,0.0,87,0.00,,---,0.00,0.00,VWS V14.00,2013-04-24 04:47:00,
2013-04-24 00:52:00,40.6,37.0,30.09,SE,129,0.0,0.0,87,0.00,,---,0.00,0.00,VWS V14.00,2013-04-24 04:52:00,
2013-04-24 00:57:00,40.6,37.0,30.09,SSE,150,0.0,0.0,87,0.00,,---,0.00,0.00,VWS V14.00,2013-04-24 04:57:00,
2013-04-24 01:00:00,31.9,25.2,30.46,SSW,200,1.0,13.0,76,0.00,,---,0.00,0.00,VWS V14.00,2013-04-24 05:00:00,
2013-04-24 01:02:00,40.6,37.0,30.09,East,90,0.0,0.0,87,0.00,,---,0.00,0.00,VWS V14.00,2013-04-24 05:02:00,
2013-04-24 01:07:00,40.7,37.1,30.08,South,182,0.0,0.0,87,0.00,,---,0.00,0.00,VWS V14.00,2013-04-24 05:07:00,
2013-04-24 01:12:00,40.7,36.8,30.08,SSE,168,0.0,0.0,86,0.00,,---,0.00,0.00,VWS V14.00,2013-04-24 05:12:00,
2013-04-24 01:17:00,40.6,36.8,30.08,South,175,0.0,0.0,86,0.00,,---,0.00,0.00,VWS V14.00,2013-04-24 05:17:00,
2013-04-24 01:22:00,40.6,36.8,30.08,SSE,161,0.0,0.0,86,0.00,,---,0.00,0.00,VWS V14.00,2013-04-24 05:22:00,
2013-04-24 01:27:00,40.7,37.1,30.08,SSE,155,0.0,0.0,87,0.00,,---,0.00,0.00,VWS V14.00,2013-04-24 05:27:00,
2013-04-24 01:30:00,31.3,24.9,30.46,SW,226,4.0,13.0,77,0.00,,---,0.00,0.00,VWS V14.00,2013-04-24 05:30:00,
2013-04-24 01:32:00,40.7,37.1,30.07,SW,232,0.0,0.0,87,0.00,,---,0.00,0.00,VWS V14.00,2013-04-24 05:32:00,
2013-04-24 01:37:00,40.6,37.0,30.07,SW,229,0.0,0.0,87,0.00,,---,0.00,0.00,VWS V14.00,2013-04-24 05:37:00,
2013-04-24 01:42:00,40.6,37.0,30.07,SE,130,0.0,0.0,87,0.00,,---,0.00,0.00,VWS V14.00,2013-04-24 05:42:00,
2013-04-24 01:47:00,40.6,37.0,30.06,SSW,198,0.0,0.0,87,0.00,,---,0.00,0.00,VWS V14.00,2013-04-24 05:47:00,
2013-04-24 01:52:00,40.7,37.1,30.06,SSW,192,0.0,0.0,87,0.00,,---,0.00,0.00,VWS V14.00,2013-04-24 05:52:00,
2013-04-24 01:57:00,40.7,37.1,30.06,SSW,210,0.0,0.0,87,0.00,,---,0.00,0.00,VWS V14.00,2013-04-24 05:57:00,
2013-04-24 02:00:00,30.9,25.2,30.46,SSW,205,5.0,8.0,79,0.00,,---,0.00,0.00,VWS V14.00,2013-04-24 06:00:00,
2013-04-24 02:02:00,40.7,37.1,30.06,SSW,192,0.0,0.0,87,0.00,,---,0.00,0.00,VWS V14.00,2013-04-24 06:02:00,
2013-04-24 02:07:00,40.7,37.1,30.06,SSW,213,0.0,0.0,87,0.00,,---,0.00,0.00,VWS V14.00,2013-04-24 06:07:00,
2013-04-24 02:12:00,40.7,37.1,30.06,SSW,202,0.0,0.0,87,0.00,,---,0.00,0.00,VWS V14.00,2013-04-24 06:12:00,
2013-04-24 02:17:00,40.7,37.1,30.06,South,186,0.0,0.0,87,0.00,,---,0.00,0.00,VWS V14.00,2013-04-24 06:17:00,
2013-04-24 02:22:00,40.7,37.4,30.06,SSW,192,0.0,0.0,88,0.00,,---,0.00,0.00,VWS V14.00,2013-04-24 06:22:00,
2013-04-24 02:27:00,40.6,37.3,30.05,South,177,0.0,0.0,88,0.00,,---,0.00,0.00,VWS V14.00,2013-04-24 06:27:00,
2013-04-24 02:30:00,30.7,25.0,30.45,South,182,11.0,11.0,79,0.00,,---,0.00,0.00,VWS V14.00,2013-04-24 06:30:00,
2013-04-24 02:32:00,40.6,37.3,30.05,SSE,159,0.0,0.0,88,0.00,,---,0.00,0.00,VWS V14.00,2013-04-24 06:32:00,
2013-04-24 02:37:00,40.6,37.3,30.05,SSE,167,0.0,0.0,88,0.00,,---,0.00,0.00,VWS V14.00,2013-04-24 06:37:00,
2013-04-24 02:42:00,40.7,37.4,30.05,East,97,0.0,0.0,88,0.00,,---,0.00,0.00,VWS V14.00,2013-04-24 06:42:00,
2013-04-24 02:47:00,40.7,37.4,30.05,SE,144,0.0,0.0,88,0.00,,---,0.00,0.00,VWS V14.00,2013-04-24 06:47:00,
2013-04-24 02:52:00,40.7,37.4,30.05,ESE,114,0.0,0.0,88,0.00,,---,0.00,0.00,VWS V14.00,2013-04-24 06:52:00,
2013-04-24 02:57:00,40.8,37.2,30.05,SSE,147,0.0,0.0,87,0.00,,---,0.00,0.00,VWS V14.00,2013-04-24 06:57:00,
2013-04-24 03:00:00,30.6,24.9,30.44,South,173,6.0,13.0,79,0.00,,---,0.00,0.00,VWS V14.00,2013-04-24 07:00:00,
2013-04-24 03:02:00,40.9,37.3,30.05,SSE,155,0.0,0.0,87,0.00,,---,0.00,0.00,VWS V14.00,2013-04-24 07:02:00,
2013-04-24 03:07:00,40.9,37.3,30.05,SSE,148,0.0,0.0,87,0.00,,---,0.00,0.00,VWS V14.00,2013-04-24 07:07:00,
2013-04-24 03:12:00,40.9,37.3,30.05,South,180,0.0,0.0,87,0.00,,---,0.00,0.00,VWS V14.00,2013-04-24 07:12:00,
2013-04-24 03:17:00,40.9,37.3,30.05,SE,139,0.0,0.0,87,0.00,,---,0.00,0.00,VWS V14.00,2013-04-24 07:17:00,
2013-04-24 03:22:00,40.9,37.3,30.04,ESE,118,0.0,0.0,87,0.00,,---,0.00,0.00,VWS V14.00,2013-04-24 07:22:00,
2013-04-24 03:27:00,40.8,37.2,30.05,SE,132,0.0,0.0,87,0.00,,---,0.00,0.00,VWS V14.00,2013-04-24 07:27:00,
2013-04-24 03:30:00,30.5,24.8,30.44,South,183,7.0,15.0,79,0.00,,---,0.00,0.00,VWS V14.00,2013-04-24 07:30:00,
2013-04-24 03:32:00,40.7,37.1,30.04,East,91,0.0,0.0,87,0.00,,---,0.00,0.00,VWS V14.00,2013-04-24 07:32:00,
2013-04-24 03:37:00,40.7,37.1,30.04,SE,137,0.0,0.0,87,0.00,,---,0.00,0.00,VWS V14.00,2013-04-24 07:37:00,
2013-04-24 03:42:00,40.7,37.1,30.04,ESE,114,0.0,0.0,87,0.00,,---,0.00,0.00,VWS V14.00,2013-04-24 07:42:00,
2013-04-24 03:47:00,40.9,37.3,30.03,East,99,0.0,0.0,87,0.00,,---,0.00,0.00,VWS V14.00,2013-04-24 07:47:00,
2013-04-24 03:52:00,40.9,37.3,30.03,SE,128,0.0,0.0,87,0.00,,---,0.00,0.00,VWS V14.00,2013-04-24 07:52:00,
2013-04-24 03:57:00,41.0,37.4,30.03,ESE,118,0.0,0.0,87,0.00,,---,0.00,0.00,VWS V14.00,2013-04-24 07:57:00,
2013-04-24 04:00:00,30.4,24.7,30.44,SSE,167,4.0,12.0,79,0.00,,---,0.00,14.00,VWS V14.00,2013-04-24 08:00:00,
2013-04-24 04:03:00,40.9,37.3,30.03,East,94,0.0,0.0,87,0.00,,---,0.00,0.00,VWS V14.00,2013-04-24 08:03:00,
2013-04-24 04:08:00,40.9,37.3,30.03,East,87,0.0,0.0,87,0.00,,---,0.00,0.00,VWS V14.00,2013-04-24 08:08:00,
2013-04-24 04:13:00,40.8,37.2,30.02,ESE,105,0.0,0.0,87,0.00,,---,0.00,0.00,VWS V14.00,2013-04-24 08:13:00,
2013-04-24 04:18:00,40.9,37.3,30.02,East,86,0.0,0.0,87,0.00,,---,0.00,0.00,VWS V14.00,2013-04-24 08:18:00,
2013-04-24 04:23:00,40.8,37.2,30.02,East,92,0.0,0.0,87,0.00,,---,0.00,0.00,VWS V14.00,2013-04-24 08:23:00,
2013-04-24 04:28:00,40.8,37.2,30.02,ESE,123,0.0,0.0,87,0.00,,---,0.00,0.00,VWS V14.00,2013-04-24 08:28:00,
2013-04-24 04:30:00,30.4,24.7,30.43,South,176,1.0,11.0,79,0.00,,---,0.00,32.00,VWS V14.00,2013-04-24 08:30:00,
2013-04-24 04:33:00,40.8,37.2,30.01,SE,128,0.0,0.0,87,0.00,,---,0.00,0.00,VWS V14.00,2013-04-24 08:33:00,
2013-04-24 04:38:00,40.9,37.3,30.01,ESE,117,0.0,0.0,87,0.00,,---,0.00,0.00,VWS V14.00,2013-04-24 08:38:00,
2013-04-24 04:43:00,40.8,37.2,30.01,East,96,0.0,0.0,87,0.00,,---,0.00,0.00,VWS V14.00,2013-04-24 08:43:00,
2013-04-24 04:48:00,40.7,37.1,30.01,ENE,60,0.0,0.0,87,0.00,,---,0.00,0.00,VWS V14.00,2013-04-24 08:48:00,
2013-04-24 04:53:00,40.8,37.2,30.00,ESE,117,0.0,0.0,87,0.00,,---,0.00,0.00,VWS V14.00,2013-04-24 08:53:00,
2013-04-24 04:58:00,40.7,37.1,30.00,ESE,118,0.0,0.0,87,0.00,,---,0.00,0.00,VWS V14.00,2013-04-24 08:58:00,
2013-04-24 05:00:00,30.9,24.9,30.44,SSE,155,4.0,17.0,78,0.00,,---,0.00,141.00,VWS V14.00,2013-04-24 09:00:00,
2013-04-24 05:03:00,40.5,37.2,30.01,ESE,111,0.0,0.0,88,0.00,,---,0.00,0.00,VWS V14.00,2013-04-24 09:03:00,
2013-04-24 05:08:00,40.5,37.2,30.01,ESE,115,0.0,0.0,88,0.00,,---,0.00,0.00,VWS V14.00,2013-04-24 09:08:00,
2013-04-24 05:13:00,40.6,37.3,30.00,ESE,123,0.0,0.0,88,0.00,,---,0.00,0.00,VWS V14.00,2013-04-24 09:13:00,
2013-04-24 05:18:00,40.5,37.2,30.01,ESE,106,0.0,0.0,88,0.00,,---,0.00,0.00,VWS V14.00,2013-04-24 09:18:00,
2013-04-24 05:23:00,40.4,37.1,30.01,ESE,119,0.0,0.0,88,0.00,,---,0.00,0.00,VWS V14.00,2013-04-24 09:23:00,
2013-04-24 05:28:00,40.3,37.0,30.00,East,96,0.0,0.0,88,0.00,,---,0.00,0.00,VWS V14.00,2013-04-24 09:28:00,
2013-04-24 05:30:00,31.8,25.1,30.43,SSE,159,6.0,14.0,76,0.00,,---,0.00,250.00,VWS V14.00,2013-04-24 09:30:00,
2013-04-24 05:33:00,40.2,36.9,30.00,East,88,0.0,0.0,88,0.00,,---,0.00,0.00,VWS V14.00,2013-04-24 09:33:00,
2013-04-24 05:38:00,40.1,36.8,30.01,SE,130,0.0,0.0,88,0.00,,---,0.00,0.00,VWS V14.00,2013-04-24 09:38:00,
2013-04-24 05:43:00,39.4,36.2,30.01,South,170,0.0,0.0,88,0.00,,---,0.00,0.00,VWS V14.00,2013-04-24 09:43:00,
2013-04-24 05:48:00,38.3,34.8,30.01,South,171,0.0,0.0,87,0.00,,---,0.00,0.00,VWS V14.00,2013-04-24 09:48:00,
2013-04-24 05:53:00,37.6,34.1,30.01,South,171,0.0,0.0,87,0.00,,---,0.00,0.00,VWS V14.00,2013-04-24 09:53:00,
2013-04-24 05:58:00,36.6,33.1,30.01,South,171,0.0,0.0,87,0.00,,---,0.00,0.00,VWS V14.00,2013-04-24 09:58:00,
2013-04-24 06:00:00,32.8,25.8,30.43,ENE,65,16.0,24.0,75,0.00,,---,0.00,343.00,VWS V14.00,2013-04-24 10:00:00,
2013-04-24 06:03:00,35.5,32.0,30.01,South,171,0.0,0.0,87,0.00,,---,0.00,5.00,VWS V14.00,2013-04-24 10:03:00,
2013-04-24 06:08:00,35.3,32.1,30.01,South,171,0.0,0.0,88,0.00,,---,0.00,9.00,VWS V14.00,2013-04-24 10:08:00,
2013-04-24 06:13:00,35.1,31.9,30.01,South,171,0.0,0.0,88,0.00,,---,0.00,11.00,VWS V14.00,2013-04-24 10:13:00,
2013-04-24 06:18:00,34.7,31.5,30.01,South,171,0.0,0.0,88,0.00,,---,0.00,14.00,VWS V14.00,2013-04-24 10:18:00,
2013-04-24 06:23:00,34.3,31.1,30.01,South,171,0.0,0.0,88,0.00,,---,0.00,19.00,VWS V14.00,2013-04-24 10:23:00,
2013-04-24 06:28:00,33.7,30.5,30.01,South,171,0.0,0.0,88,0.00,,---,0.00,23.00,VWS V14.00,2013-04-24 10:28:00,
2013-04-24 06:30:00,33.7,25.6,30.42,SE,139,3.0,19.0,72,0.00,,---,0.00,438.00,VWS V14.00,2013-04-24 10:30:00,
2013-04-24 06:33:00,33.8,30.9,30.01,SE,128,0.0,0.0,89,0.00,,---,0.00,25.00,VWS V14.00,2013-04-24 10:33:00,
2013-04-24 06:38:00,34.3,31.4,30.01,SE,128,0.0,0.0,89,0.00,,---,0.00,30.00,VWS V14.00,2013-04-24 10:38:00,
2013-04-24 06:43:00,35.2,32.6,30.01,SE,128,0.0,0.0,90,0.00,,---,0.00,60.00,VWS V14.00,2013-04-24 10:43:00,
2013-04-24 06:48:00,35.3,32.7,30.01,SE,128,0.0,0.0,90,0.00,,---,0.00,70.00,VWS V14.00,2013-04-24 10:48:00,
2013-04-24 06:53:00,36.5,34.1,30.01,SE,127,0.0,0.0,91,0.00,,---,0.00,81.00,VWS V14.00,2013-04-24 10:53:00,
2013-04-24 06:58:00,38.2,36.1,30.00,SE,125,0.0,0.0,92,0.00,,---,0.00,97.00,VWS V14.00,2013-04-24 10:58:00,
2013-04-24 07:00:00,35.5,26.7,30.42,East,94,6.0,24.0,70,0.00,,---,0.00,531.00,VWS V14.00,2013-04-24 11:00:00,
2013-04-24 07:03:00,39.1,36.7,30.00,SE,135,0.0,0.0,91,0.00,,---,0.00,107.00,VWS V14.00,2013-04-24 11:03:00,
2013-04-24 07:08:00,39.6,37.2,30.00,SE,126,0.0,0.0,91,0.00,,---,0.00,121.00,VWS V14.00,2013-04-24 11:08:00,
2013-04-24 07:13:00,39.9,37.2,30.00,ESE,117,0.0,0.0,90,0.00,,---,0.00,134.00,VWS V14.00,2013-04-24 11:13:00,
2013-04-24 07:18:00,40.1,37.4,30.01,SE,126,0.0,0.0,90,0.00,,---,0.00,153.00,VWS V14.00,2013-04-24 11:18:00,
2013-04-24 07:23:00,40.6,37.9,30.00,South,169,0.0,0.0,90,0.00,,---,0.00,171.00,VWS V14.00,2013-04-24 11:23:00,
2013-04-24 07:28:00,41.0,38.3,30.00,South,181,0.0,0.0,90,0.00,,---,0.00,190.00,VWS V14.00,2013-04-24 11:28:00,
2013-04-24 07:30:00,36.7,27.5,30.40,SE,124,3.0,20.0,69,0.00,,---,0.00,608.00,VWS V14.00,2013-04-24 11:30:00,
2013-04-24 07:33:00,41.3,38.3,30.00,South,177,0.0,0.0,89,0.00,,---,0.00,204.00,VWS V14.00,2013-04-24 11:33:00,
2013-04-24 07:38:00,41.8,38.8,30.00,South,173,0.0,0.0,89,0.00,,---,0.00,227.00,VWS V14.00,2013-04-24 11:38:00,
2013-04-24 07:43:00,42.3,39.0,30.00,SSE,156,0.0,0.0,88,0.00,,---,0.00,246.00,VWS V14.00,2013-04-24 11:43:00,
2013-04-24 07:48:00,42.7,39.4,29.99,South,171,0.0,0.0,88,0.00,,---,0.00,264.00,VWS V14.00,2013-04-24 11:48:00,
2013-04-24 07:53:00,43.2,39.6,29.99,South,171,0.0,0.0,87,0.00,,---,0.00,279.00,VWS V14.00,2013-04-24 11:53:00,
2013-04-24 07:58:00,43.6,39.7,29.99,South,171,0.0,0.0,86,0.00,,---,0.00,295.00,VWS V14.00,2013-04-24 11:58:00,
2013-04-24 08:00:00,38.4,29.1,30.39,SE,146,4.0,14.0,69,0.00,,---,0.00,684.00,VWS V14.00,2013-04-24 12:00:00,
2013-04-24 08:03:00,44.2,40.3,29.99,South,171,0.0,0.0,86,0.00,,---,0.00,311.00,VWS V14.00,2013-04-24 12:03:00,
2013-04-24 08:08:00,44.8,40.6,29.99,SSE,161,2.0,3.0,85,0.00,,---,0.00,323.00,VWS V14.00,2013-04-24 12:08:00,
2013-04-24 08:13:00,45.2,40.7,29.99,SSE,154,3.0,5.0,84,0.00,,---,0.00,339.00,VWS V14.00,2013-04-24 12:13:00,
2013-04-24 08:18:00,45.6,40.7,29.98,SSE,153,0.0,4.0,83,0.00,,---,0.00,359.00,VWS V14.00,2013-04-24 12:18:00,
2013-04-24 08:23:00,46.1,41.2,29.98,SSE,157,0.0,4.0,83,0.00,,---,0.00,374.00,VWS V14.00,2013-04-24 12:23:00,
2013-04-24 08:28:00,46.9,41.7,29.98,SSE,157,0.0,4.0,82,0.00,,---,0.00,390.00,VWS V14.00,2013-04-24 12:28:00,
2013-04-24 08:30:00,39.9,30.2,30.38,SE,132,5.0,16.0,68,0.00,,---,0.00,635.00,VWS V14.00,2013-04-24 12:30:00,
2013-04-24 08:33:00,47.4,41.9,29.98,SSE,157,0.0,4.0,81,0.00,,---,0.00,406.00,VWS V14.00,2013-04-24 12:33:00,
2013-04-24 08:38:00,48.2,42.3,29.98,SSE,157,0.0,4.0,80,0.00,,---,0.00,422.00,VWS V14.00,2013-04-24 12:38:00,
2013-04-24 08:43:00,49.0,42.8,29.98,West,280,0.0,4.0,79,0.00,,---,0.00,438.00,VWS V14.00,2013-04-24 12:43:00,
2013-04-24 08:48:00,50.0,43.4,29.97,WNW,290,0.0,1.0,78,0.00,,---,0.00,454.00,VWS V14.00,2013-04-24 12:48:00,
2013-04-24 08:53:00,51.1,43.5,29.97,South,178,1.0,4.0,75,0.00,,---,0.00,468.00,VWS V14.00,2013-04-24 12:53:00,
2013-04-24 08:58:00,51.8,43.4,29.97,South,184,3.0,5.0,73,0.00,,---,0.00,482.00,VWS V14.00,2013-04-24 12:58:00,
2013-04-24 09:00:00,41.0,31.3,30.38,ESE,120,3.0,19.0,68,0.00,,---,0.00,809.00,VWS V14.00,2013-04-24 13:00:00,
2013-04-24 09:03:00,52.4,43.7,29.97,South,182,2.0,5.0,72,0.00,,---,0.00,497.00,VWS V14.00,2013-04-24 13:03:00,
2013-04-24 09:08:00,52.7,43.2,29.97,WSW,238,0.0,5.0,70,0.00,,---,0.00,512.00,VWS V14.00,2013-04-24 13:08:00,
2013-04-24 09:13:00,53.0,43.1,29.96,WSW,244,0.0,5.0,69,0.00,,---,0.00,524.00,VWS V14.00,2013-04-24 13:13:00,
2013-04-24 09:18:00,53.0,42.7,29.96,South,170,3.0,4.0,68,0.00,,---,0.00,541.00,VWS V14.00,2013-04-24 13:18:00,
2013-04-24 09:23:00,53.3,43.0,29.95,South,186,2.0,5.0,68,0.00,,---,0.00,555.00,VWS V14.00,2013-04-24 13:23:00,
2013-04-24 09:28:00,53.5,42.8,29.95,South,173,0.0,5.0,67,0.00,,---,0.00,571.00,VWS V14.00,2013-04-24 13:28:00,
2013-04-24 09:30:00,41.2,31.8,30.36,SE,134,9.0,22.0,69,0.00,,---,0.00,907.00,VWS V14.00,2013-04-24 13:30:00,
2013-04-24 09:34:00,53.6,42.9,29.94,SE,134,0.0,5.0,67,0.00,,---,0.00,584.00,VWS V14.00,2013-04-24 13:34:00,
2013-04-24 09:39:00,53.8,43.1,29.94,SSE,167,3.0,5.0,67,0.00,,---,0.00,594.00,VWS V14.00,2013-04-24 13:39:00,
2013-04-24 09:43:00,53.5,42.4,29.94,ESE,118,2.0,7.0,66,0.00,,---,0.00,608.00,VWS V14.00,2013-04-24 13:43:00,
2013-04-24 09:48:00,54.2,43.9,29.93,ESE,118,0.0,2.0,68,0.00,,---,0.00,624.00,VWS V14.00,2013-04-24 13:48:00,
2013-04-24 09:53:00,55.2,43.2,29.93,WSW,240,1.0,6.0,64,0.00,,---,0.00,638.00,VWS V14.00,2013-04-24 13:53:00,
2013-04-24 09:58:00,55.5,42.7,29.93,SW,236,0.0,6.0,62,0.00,,---,0.00,650.00,VWS V14.00,2013-04-24 13:58:00,
2013-04-24 10:00:00,41.8,32.0,30.35,ENE,65,11.0,24.0,68,0.00,,---,0.00,918.00,VWS V14.00,2013-04-24 14:00:00,
2013-04-24 10:03:00,56.0,43.2,29.92,WSW,238,2.0,6.0,62,0.00,,---,0.00,659.00,VWS V14.00,2013-04-24 14:03:00,
2013-04-24 10:08:00,56.8,43.1,29.92,WSW,238,0.0,6.0,60,0.00,,---,0.00,671.00,VWS V14.00,2013-04-24 14:08:00,
2013-04-24 10:14:00,57.5,42.8,29.92,South,184,3.0,6.0,58,0.00,,---,0.00,686.00,VWS V14.00,2013-04-24 14:14:00,
2013-04-24 10:19:00,57.5,42.4,29.92,South,177,0.0,7.0,57,0.00,,---,0.00,696.00,VWS V14.00,2013-04-24 14:19:00,
2013-04-24 10:24:00,57.4,42.8,29.92,SW,236,3.0,7.0,58,0.00,,---,0.00,705.00,VWS V14.00,2013-04-24 14:24:00,
2013-04-24 10:29:00,57.8,44.0,29.92,WNW,301,3.0,7.0,60,0.00,,---,0.00,715.00,VWS V14.00,2013-04-24 14:29:00,
2013-04-24 10:30:00,43.0,33.2,30.34,ESE,102,7.0,20.0,68,0.00,,---,0.00,979.00,VWS V14.00,2013-04-24 14:30:00,
2013-04-24 10:34:00,57.7,43.0,29.92,WSW,251,5.0,10.0,58,0.00,,---,0.00,729.00,VWS V14.00,2013-04-24 14:34:00,
2013-04-24 10:39:00,57.0,43.3,29.92,WSW,244,3.0,10.0,60,0.00,,---,0.00,738.00,VWS V14.00,2013-04-24 14:39:00,
2013-04-24 10:44:00,56.7,43.0,29.92,SW,236,5.0,10.0,60,0.00,,---,0.00,747.00,VWS V14.00,2013-04-24 14:44:00,
2013-04-24 10:49:00,57.0,43.3,29.92,West,259,4.0,6.0,60,0.00,,---,0.00,756.00,VWS V14.00,2013-04-24 14:49:00,
2013-04-24 10:54:00,57.3,44.0,29.92,WSW,244,1.0,6.0,61,0.00,,---,0.00,765.00,VWS V14.00,2013-04-24 14:54:00,
2013-04-24 10:59:00,57.3,43.5,29.92,West,259,3.0,6.0,60,0.00,,---,0.00,773.00,VWS V14.00,2013-04-24 14:59:00,
2013-04-24 11:00:00,42.9,33.1,30.32,ESE,115,3.0,18.0,68,0.00,,---,0.00,452.00,VWS V14.00,2013-04-24 15:00:00,
2013-04-24 11:04:00,57.2,43.5,29.91,WSW,256,4.0,6.0,60,0.00,,---,0.00,786.00,VWS V14.00,2013-04-24 15:04:00,
2013-04-24 11:09:00,57.5,45.0,29.91,SSE,168,3.0,6.0,63,0.00,,---,0.00,795.00,VWS V14.00,2013-04-24 15:09:00,
2013-04-24 11:14:00,56.9,43.6,29.91,South,174,4.0,7.0,61,0.00,,---,0.00,803.00,VWS V14.00,2013-04-24 15:14:00,
2013-04-24 11:19:00,57.2,43.9,29.89,WSW,240,0.0,4.0,61,0.00,,---,0.00,810.00,VWS V14.00,2013-04-24 15:19:00,
2013-04-24 11:24:00,57.7,43.0,29.89,SE,136,5.0,10.0,58,0.00,,---,0.00,821.00,VWS V14.00,2013-04-24 15:24:00,
2013-04-24 11:29:00,57.9,45.0,29.88,SSE,162,2.0,10.0,62,0.00,,---,0.00,835.00,VWS V14.00,2013-04-24 15:29:00,
2013-04-24 11:30:00,42.4,33.3,30.32,ESE,119,4.0,17.0,70,0.00,,---,0.00,559.00,VWS V14.00,2013-04-24 15:30:00,
2013-04-24 11:34:00,59.0,44.3,29.88,SW,217,2.0,10.0,58,0.00,,---,0.00,849.00,VWS V14.00,2013-04-24 15:34:00,
2013-04-24 11:39:00,59.0,42.4,29.88,South,183,0.0,10.0,54,0.00,,---,0.00,826.00,VWS V14.00,2013-04-24 15:39:00,
2013-04-24 11:44:00,60.5,42.3,29.88,SSW,205,4.0,10.0,51,0.00,,---,0.00,849.00,VWS V14.00,2013-04-24 15:44:00,
2013-04-24 11:49:00,60.7,43.5,29.88,WSW,242,1.0,7.0,53,0.00,,---,0.00,868.00,VWS V14.00,2013-04-24 15:49:00,
2013-04-24 11:54:00,60.7,43.0,29.87,South,183,3.0,8.0,52,0.00,,---,0.00,842.00,VWS V14.00,2013-04-24 15:54:00,
2013-04-24 11:59:00,61.2,43.5,29.87,WSW,250,4.0,8.0,52,0.00,,---,0.00,863.00,VWS V14.00,2013-04-24 15:59:00,
2013-04-24 12:00:00,43.2,34.5,30.31,SE,130,4.0,16.0,71,0.00,,---,0.00,464.00,VWS V14.00,2013-04-24 16:00:00,
2013-04-24 12:04:00,61.3,42.0,29.87,SSW,196,7.0,9.0,49,0.00,,---,0.00,875.00,VWS V14.00,2013-04-24 16:04:00,
2013-04-24 12:09:00,61.7,42.9,29.87,West,275,0.0,9.0,50,0.00,,---,0.00,884.00,VWS V14.00,2013-04-24 16:09:00,
2013-04-24 12:14:00,62.4,42.5,29.86,WSW,244,2.0,9.0,48,0.00,,---,0.00,881.00,VWS V14.00,2013-04-24 16:14:00,
2013-04-24 12:19:00,62.6,39.8,29.86,South,186,4.0,10.0,43,0.00,,---,0.00,923.00,VWS V14.00,2013-04-24 16:19:00,
2013-04-24 12:24:00,61.7,40.2,29.85,South,173,3.0,10.0,45,0.00,,---,0.00,930.00,VWS V14.00,2013-04-24 16:24:00,
2013-04-24 12:29:00,62.0,38.7,29.85,South,178,3.0,10.0,42,0.00,,---,0.00,923.00,VWS V14.00,2013-04-24 16:29:00,
2013-04-24 12:30:00,42.5,33.4,30.30,SE,133,5.0,16.0,70,0.00,,---,0.00,478.00,VWS V14.00,2013-04-24 16:30:00,
2013-04-24 12:34:00,62.5,38.5,29.85,WSW,250,4.0,10.0,41,0.00,,---,0.00,919.00,VWS V14.00,2013-04-24 16:34:00,
2013-04-24 12:39:00,62.1,38.1,29.84,SE,135,6.0,10.0,41,0.00,,---,0.00,886.00,VWS V14.00,2013-04-24 16:39:00,
2013-04-24 12:44:00,62.2,40.0,29.84,South,177,4.0,10.0,44,0.00,,---,0.00,911.00,VWS V14.00,2013-04-24 16:44:00,
2013-04-24 12:49:00,63.8,40.3,29.84,South,171,6.0,7.0,42,0.00,,---,0.00,759.00,VWS V14.00,2013-04-24 16:49:00,
2013-04-24 12:54:00,62.8,39.4,29.83,WSW,249,0.0,7.0,42,0.00,,---,0.00,907.00,VWS V14.00,2013-04-24 16:54:00,
2013-04-24 12:59:00,63.5,39.4,29.83,SSE,167,3.0,10.0,41,0.00,,---,0.00,904.00,VWS V14.00,2013-04-24 16:59:00,
2013-04-24 13:00:00,43.6,34.5,30.28,SSE,163,5.0,14.0,70,0.00,,---,0.00,580.00,VWS V14.00,2013-04-24 17:00:00,
2013-04-24 13:04:00,62.8,40.0,29.82,SW,218,9.0,10.0,43,0.00,,---,0.00,888.00,VWS V14.00,2013-04-24 17:04:00,
2013-04-24 13:09:00,62.8,37.5,29.82,SSW,207,1.0,10.0,39,0.00,,---,0.00,888.00,VWS V14.00,2013-04-24 17:09:00,
2013-04-24 13:14:00,63.4,39.3,29.82,SW,216,4.0,10.0,41,0.00,,---,0.00,886.00,VWS V14.00,2013-04-24 17:14:00,
2013-04-24 13:20:00,63.3,39.2,29.81,SSE,155,4.0,7.0,41,0.00,,---,0.00,882.00,VWS V14.00,2013-04-24 17:20:00,
2013-04-24 13:24:00,63.2,37.2,29.81,South,180,4.0,9.0,38,0.00,,---,0.00,877.00,VWS V14.00,2013-04-24 17:24:00,
2013-04-24 13:29:00,63.6,34.7,29.80,SSE,151,2.0,9.0,34,0.00,,---,0.00,875.00,VWS V14.00,2013-04-24 17:29:00,
2013-04-24 13:30:00,43.8,34.7,30.27,SSE,163,5.0,16.0,70,0.00,,---,0.00,541.00,VWS V14.00,2013-04-24 17:30:00,
2013-04-24 13:34:00,63.8,39.0,29.79,ESE,118,5.0,9.0,40,0.00,,---,0.00,874.00,VWS V14.00,2013-04-24 17:34:00,
2013-04-24 13:40:00,63.8,37.0,29.79,WSW,247,4.0,9.0,37,0.00,,---,0.00,872.00,VWS V14.00,2013-04-24 17:40:00,
2013-04-24 13:44:00,64.2,37.4,29.78,SSE,157,4.0,9.0,37,0.00,,---,0.00,868.00,VWS V14.00,2013-04-24 17:44:00,
2013-04-24 13:50:00,65.3,35.5,29.78,SSE,155,4.0,9.0,33,0.00,,---,0.00,865.00,VWS V14.00,2013-04-24 17:50:00,
2013-04-24 13:55:00,65.8,36.7,29.77,South,173,3.0,9.0,34,0.00,,---,0.00,858.00,VWS V14.00,2013-04-24 17:55:00,
2013-04-24 14:00:00,66.7,38.2,29.77,South,182,2.0,9.0,35,0.00,,---,0.00,856.00,VWS V14.00,2013-04-24 18:00:00,
2013-04-24 14:05:00,65.8,35.2,29.77,South,184,5.0,9.0,32,0.00,,---,0.00,849.00,VWS V14.00,2013-04-24 18:05:00,
2013-04-24 14:10:00,66.6,35.8,29.77,South,186,3.0,9.0,32,0.00,,---,0.00,842.00,VWS V14.00,2013-04-24 18:10:00,
2013-04-24 14:15:00,66.8,37.6,29.76,WSW,248,4.0,9.0,34,0.00,,---,0.00,835.00,VWS V14.00,2013-04-24 18:15:00,
2013-04-24 14:20:00,66.8,37.6,29.76,South,169,6.0,9.0,34,0.00,,---,0.00,830.00,VWS V14.00,2013-04-24 18:20:00,
2013-04-24 14:25:00,66.7,36.7,29.75,SSE,161,1.0,9.0,33,0.00,,---,0.00,824.00,VWS V14.00,2013-04-24 18:25:00,
2013-04-24 14:30:00,66.7,36.7,29.75,South,174,5.0,9.0,33,0.00,,---,0.00,821.00,VWS V14.00,2013-04-24 18:30:00,
2013-04-24 14:35:00,67.1,37.1,29.75,South,172,6.0,9.0,33,0.00,,---,0.00,812.00,VWS V14.00,2013-04-24 18:35:00,
2013-04-24 14:40:00,67.3,37.2,29.75,South,171,7.0,9.0,33,0.00,,---,0.00,802.00,VWS V14.00,2013-04-24 18:40:00,
2013-04-24 14:45:00,67.4,38.8,29.75,SSE,157,4.0,4.0,35,0.00,,---,0.00,793.00,VWS V14.00,2013-04-24 18:45:00,
2013-04-24 14:50:00,67.0,37.0,29.75,South,185,7.0,9.0,33,0.00,,---,0.00,786.00,VWS V14.00,2013-04-24 18:50:00,
2013-04-24 14:55:00,67.6,37.5,29.75,WSW,241,10.0,10.0,33,0.00,,---,0.00,780.00,VWS V14.00,2013-04-24 18:55:00,
2013-04-24 15:00:00,67.7,39.8,29.75,South,185,6.0,10.0,36,0.00,,---,0.00,770.00,VWS V14.00,2013-04-24 19:00:00,
2013-04-24 15:05:00,68.3,37.3,29.75,SSW,193,5.0,10.0,32,0.00,,---,0.00,765.00,VWS V14.00,2013-04-24 19:05:00,
2013-04-24 15:10:00,68.3,38.1,29.75,SSE,159,2.0,13.0,33,0.00,,---,0.00,756.00,VWS V14.00,2013-04-24 19:10:00,
2013-04-24 15:15:00,68.0,37.8,29.75,South,180,4.0,4.0,33,0.00,,---,0.00,749.00,VWS V14.00,2013-04-24 19:15:00,
2013-04-24 15:20:00,68.2,38.8,29.75,South,181,5.0,10.0,34,0.00,,---,0.00,738.00,VWS V14.00,2013-04-24 19:20:00,
2013-04-24 15:25:00,67.9,39.3,29.74,SW,220,5.0,13.0,35,0.00,,---,0.00,726.00,VWS V14.00,2013-04-24 19:25:00,
2013-04-24 15:30:00,67.6,39.7,29.74,South,183,0.0,13.0,36,0.00,,---,0.00,714.00,VWS V14.00,2013-04-24 19:30:00,
2013-04-24 15:35:00,67.8,39.2,29.74,South,180,3.0,13.0,35,0.00,,---,0.00,705.00,VWS V14.00,2013-04-24 19:35:00,
2013-04-24 15:40:00,69.1,41.8,29.74,SSW,207,3.0,13.0,37,0.00,,---,0.00,693.00,VWS V14.00,2013-04-24 19:40:00,
2013-04-24 15:45:00,69.2,39.7,29.73,South,176,4.0,7.0,34,0.00,,---,0.00,682.00,VWS V14.00,2013-04-24 19:45:00,
2013-04-24 15:50:00,69.4,39.1,29.73,South,180,3.0,14.0,33,0.00,,---,0.00,670.00,VWS V14.00,2013-04-24 19:50:00,
2013-04-24 15:55:00,69.3,39.0,29.73,SSE,149,5.0,14.0,33,0.00,,---,0.00,659.00,VWS V14.00,2013-04-24 19:55:00,
2013-04-24 16:00:00,69.5,40.7,29.72,South,188,4.0,14.0,35,0.00,,---,0.00,647.00,VWS V14.00,2013-04-24 20:00:00,
2013-04-24 16:05:00,69.8,39.4,29.72,SSE,155,3.0,14.0,33,0.00,,---,0.00,633.00,VWS V14.00,2013-04-24 20:05:00,
2013-04-24 16:10:00,69.6,40.8,29.72,WSW,251,5.0,14.0,35,0.00,,---,0.00,621.00,VWS V14.00,2013-04-24 20:10:00,
2013-04-24 16:15:00,69.4,39.1,29.72,South,171,2.0,15.0,33,0.00,,---,0.00,606.00,VWS V14.00,2013-04-24 20:15:00,
2013-04-24 16:20:00,69.1,40.3,29.72,South,185,3.0,10.0,35,0.00,,---,0.00,591.00,VWS V14.00,2013-04-24 20:20:00,
2013-04-24 16:25:00,69.6,40.0,29.72,South,186,8.0,11.0,34,0.00,,---,0.00,577.00,VWS V14.00,2013-04-24 20:25:00,
2013-04-24 16:30:00,69.1,39.6,29.72,SW,218,7.0,12.0,34,0.00,,---,0.00,559.00,VWS V14.00,2013-04-24 20:30:00,
2013-04-24 16:35:00,69.6,40.8,29.72,SSE,161,6.0,15.0,35,0.00,,---,0.00,545.00,VWS V14.00,2013-04-24 20:35:00,
2013-04-24 16:40:00,68.9,39.4,29.72,SW,227,2.0,15.0,34,0.00,,---,0.00,524.00,VWS V14.00,2013-04-24 20:40:00,
2013-04-24 16:45:00,69.2,41.1,29.72,South,171,2.0,15.0,36,0.00,,---,0.00,519.00,VWS V14.00,2013-04-24 20:45:00,
2013-04-24 16:50:00,69.6,40.8,29.71,SE,146,5.0,5.0,35,0.00,,---,0.00,497.00,VWS V14.00,2013-04-24 20:50:00,
2013-04-24 16:55:00,69.9,40.3,29.71,SSW,213,3.0,5.0,34,0.00,,---,0.00,469.00,VWS V14.00,2013-04-24 20:55:00,
2013-04-24 17:00:00,70.0,41.1,29.72,SW,232,6.0,9.0,35,0.00,,---,0.00,436.00,VWS V14.00,2013-04-24 21:00:00,
2013-04-24 17:05:00,69.5,39.2,29.72,SSW,206,3.0,11.0,33,0.00,,---,0.00,156.00,VWS V14.00,2013-04-24 21:05:00,
2013-04-24 17:10:00,68.9,40.2,29.72,South,169,11.0,13.0,35,0.00,,---,0.00,406.00,VWS V14.00,2013-04-24 21:10:00,
2013-04-24 17:15:00,68.6,40.6,29.72,South,182,5.0,5.0,36,0.00,,---,0.00,151.00,VWS V14.00,2013-04-24 21:15:00,
2013-04-24 17:20:00,68.3,39.6,29.72,South,177,1.0,14.0,35,0.00,,---,0.00,146.00,VWS V14.00,2013-04-24 21:20:00,
2013-04-24 17:25:00,68.0,40.1,29.72,South,182,5.0,14.0,36,0.00,,---,0.00,151.00,VWS V14.00,2013-04-24 21:25:00,
2013-04-24 17:30:00,67.9,40.7,29.71,South,174,2.0,14.0,37,0.00,,---,0.00,160.00,VWS V14.00,2013-04-24 21:30:00,
2013-04-24 17:35:00,67.8,40.6,29.71,SW,221,7.0,14.0,37,0.00,,---,0.00,292.00,VWS V14.00,2013-04-24 21:35:00,
2013-04-24 17:40:00,67.9,40.7,29.71,WSW,242,6.0,14.0,37,0.00,,---,0.00,193.00,VWS V14.00,2013-04-24 21:40:00,
2013-04-24 17:45:00,67.8,41.3,29.71,SSE,160,11.0,11.0,38,0.00,,---,0.00,114.00,VWS V14.00,2013-04-24 21:45:00,
2013-04-24 17:50:00,67.6,41.1,29.71,South,183,0.0,11.0,38,0.00,,---,0.00,88.00,VWS V14.00,2013-04-24 21:50:00,
2013-04-24 17:55:00,67.5,42.3,29.71,SW,218,0.0,11.0,40,0.00,,---,0.00,93.00,VWS V14.00,2013-04-24 21:55:00,
2013-04-24 18:00:00,67.5,41.7,29.71,SW,227,2.0,11.0,39,0.00,,---,0.00,88.00,VWS V14.00,2013-04-24 22:00:00,
2013-04-24 18:05:00,67.5,42.3,29.71,West,259,1.0,11.0,40,0.00,,---,0.00,84.00,VWS V14.00,2013-04-24 22:05:00,
2013-04-24 18:10:00,67.2,42.7,29.71,South,182,0.0,11.0,41,0.00,,---,0.00,93.00,VWS V14.00,2013-04-24 22:10:00,
2013-04-24 18:15:00,67.1,42.0,29.71,South,184,3.0,4.0,40,0.00,,---,0.00,83.00,VWS V14.00,2013-04-24 22:15:00,
2013-04-24 18:20:00,67.1,42.0,29.71,SW,222,5.0,7.0,40,0.00,,---,0.00,60.00,VWS V14.00,2013-04-24 22:20:00,
2013-04-24 18:25:00,67.1,42.0,29.71,SSW,213,0.0,7.0,40,0.00,,---,0.00,42.00,VWS V14.00,2013-04-24 22:25:00,
2013-04-24 18:30:00,67.1,42.6,29.71,SSW,205,4.0,7.0,41,0.00,,---,0.00,53.00,VWS V14.00,2013-04-24 22:30:00,
2013-04-24 18:36:00,66.9,41.8,29.71,SW,224,1.0,7.0,40,0.00,,---,0.00,39.00,VWS V14.00,2013-04-24 22:36:00,
2013-04-24 18:41:00,66.9,41.8,29.71,SW,228,3.0,7.0,40,0.00,,---,0.00,16.00,VWS V14.00,2013-04-24 22:41:00,
2013-04-24 18:46:00,66.8,41.7,29.71,West,270,0.0,1.0,40,0.00,,---,0.00,30.00,VWS V14.00,2013-04-24 22:46:00,
2013-04-24 18:51:00,66.6,42.2,29.71,West,261,0.0,2.0,41,0.00,,---,0.00,11.00,VWS V14.00,2013-04-24 22:51:00,
2013-04-24 18:56:00,66.5,42.1,29.71,WSW,257,0.0,3.0,41,0.00,,---,0.00,18.00,VWS V14.00,2013-04-24 22:56:00,
2013-04-24 19:00:00,40.2,34.8,30.19,SSE,157,0.0,0.0,81,0.00,,---,0.00,0.00,VWS V14.00,2013-04-24 23:00:00,
2013-04-24 19:01:00,66.3,43.2,29.70,WSW,257,0.0,3.0,43,0.00,,---,0.00,19.00,VWS V14.00,2013-04-24 23:01:00,
2013-04-24 19:06:00,66.2,43.1,29.70,WSW,257,0.0,3.0,43,0.00,,---,0.00,21.00,VWS V14.00,2013-04-24 23:06:00,
2013-04-24 19:11:00,66.1,43.0,29.70,West,263,1.0,4.0,43,0.00,,---,0.00,12.00,VWS V14.00,2013-04-24 23:11:00,
2013-04-24 19:16:00,65.9,42.8,29.70,West,263,0.0,0.0,43,0.00,,---,0.00,7.00,VWS V14.00,2013-04-24 23:16:00,
2013-04-24 19:21:00,65.7,43.2,29.71,West,263,0.0,0.0,44,0.00,,---,0.00,0.00,VWS V14.00,2013-04-24 23:21:00,
2013-04-24 19:26:00,65.5,44.2,29.71,West,263,0.0,0.0,46,0.00,,---,0.00,0.00,VWS V14.00,2013-04-24 23:26:00,
2013-04-24 19:30:00,39.5,34.8,30.17,East,92,0.0,0.0,83,0.00,,---,0.00,0.00,VWS V14.00,2013-04-24 23:30:00,
2013-04-24 19:31:00,65.1,43.3,29.70,West,263,0.0,0.0,45,0.00,,---,0.00,0.00,VWS V14.00,2013-04-24 23:31:00,
2013-04-24 19:36:00,64.9,43.1,29.70,West,263,0.0,0.0,45,0.00,,---,0.00,0.00,VWS V14.00,2013-04-24 23:36:00,
2013-04-24 19:41:00,64.6,43.9,29.70,West,263,0.0,0.0,47,0.00,,---,0.00,0.00,VWS V14.00,2013-04-24 23:41:00,
2013-04-24 19:46:00,64.2,43.6,29.70,West,263,0.0,0.0,47,0.00,,---,0.00,0.00,VWS V14.00,2013-04-24 23:46:00,
2013-04-24 19:51:00,63.8,43.8,29.69,West,263,3.0,3.0,48,0.00,,---,0.00,0.00,VWS V14.00,2013-04-24 23:51:00,
2013-04-24 19:56:00,63.1,44.7,29.68,ESE,117,1.0,4.0,51,0.00,,---,0.00,0.00,VWS V14.00,2013-04-24 23:56:00,
2013-04-24 20:00:00,39.1,34.7,30.17,ESE,111,0.0,0.0,84,0.00,,---,0.00,0.00,VWS V14.00,2013-04-25 00:00:00,
2013-04-24 20:01:00,62.7,43.8,29.68,ESE,117,3.0,4.0,50,0.00,,---,0.00,0.00,VWS V14.00,2013-04-25 00:01:00,
2013-04-24 20:06:00,62.2,44.4,29.68,ESE,117,0.0,4.0,52,0.00,,---,0.00,0.00,VWS V14.00,2013-04-25 00:06:00,
2013-04-24 20:11:00,62.0,44.2,29.67,ESE,117,0.0,4.0,52,0.00,,---,0.00,0.00,VWS V14.00,2013-04-25 00:11:00,
2013-04-24 20:16:00,61.9,43.6,29.66,East,95,1.0,5.0,51,0.00,,---,0.00,0.00,VWS V14.00,2013-04-25 00:16:00,
2013-04-24 20:21:00,61.9,43.6,29.66,East,95,0.0,5.0,51,0.00,,---,0.00,0.00,VWS V14.00,2013-04-25 00:21:00,
2013-04-24 20:26:00,61.8,45.0,29.66,East,95,0.0,5.0,54,0.00,,---,0.00,0.00,VWS V14.00,2013-04-25 00:26:00,
2013-04-24 20:30:00,39.3,35.2,30.16,SSE,168,0.0,0.0,85,0.00,,---,0.00,0.00,VWS V14.00,2013-04-25 00:30:00,
2013-04-24 20:31:00,61.5,44.7,29.67,East,95,0.0,5.0,54,0.00,,---,0.00,0.00,VWS V14.00,2013-04-25 00:31:00,
2013-04-24 20:36:00,61.3,45.5,29.67,East,95,0.0,5.0,56,0.00,,---,0.00,0.00,VWS V14.00,2013-04-25 00:36:00,
2013-04-24 20:41:00,60.9,45.1,29.67,East,95,0.0,5.0,56,0.00,,---,0.00,0.00,VWS V14.00,2013-04-25 00:41:00,
2013-04-24 20:46:00,60.6,45.3,29.67,East,95,0.0,1.0,57,0.00,,---,0.00,0.00,VWS V14.00,2013-04-25 00:46:00,
2013-04-24 20:51:00,60.3,46.4,29.67,East,95,0.0,1.0,60,0.00,,---,0.00,0.00,VWS V14.00,2013-04-25 00:51:00,
2013-04-24 20:56:00,59.6,45.7,29.66,East,95,0.0,2.0,60,0.00,,---,0.00,0.00,VWS V14.00,2013-04-25 00:56:00,
2013-04-24 21:00:00,39.6,35.5,30.14,East,92,0.0,0.0,85,0.00,,---,0.00,0.00,VWS V14.00,2013-04-25 01:00:00,
2013-04-24 21:01:00,58.8,45.8,29.67,East,95,0.0,2.0,62,0.00,,---,0.00,0.00,VWS V14.00,2013-04-25 01:01:00,
2013-04-24 21:06:00,58.8,45.0,29.67,East,95,0.0,2.0,60,0.00,,---,0.00,0.00,VWS V14.00,2013-04-25 01:06:00,
2013-04-24 21:11:00,58.9,45.5,29.67,East,95,1.0,2.0,61,0.00,,---,0.00,0.00,VWS V14.00,2013-04-25 01:11:00,
2013-04-24 21:16:00,59.0,45.2,29.66,East,95,0.0,1.0,60,0.00,,---,0.00,0.00,VWS V14.00,2013-04-25 01:16:00,
2013-04-24 21:21:00,59.0,45.2,29.66,East,95,0.0,1.0,60,0.00,,---,0.00,0.00,VWS V14.00,2013-04-25 01:21:00,
2013-04-24 21:26:00,59.3,45.4,29.67,East,95,0.0,1.0,60,0.00,,---,0.00,0.00,VWS V14.00,2013-04-25 01:26:00,
2013-04-24 21:30:00,39.3,35.2,30.16,SSE,168,0.0,0.0,85,0.00,,---,0.00,0.00,VWS V14.00,2013-04-25 01:30:00,
2013-04-24 21:31:00,60.0,45.2,29.67,SSE,168,1.0,4.0,58,0.00,,---,0.00,0.00,VWS V14.00,2013-04-25 01:31:00,
2013-04-24 21:36:00,61.2,45.4,29.67,South,181,0.0,4.0,56,0.00,,---,0.00,0.00,VWS V14.00,2013-04-25 01:36:00,
2013-04-24 21:41:00,62.2,44.9,29.67,South,180,2.0,7.0,53,0.00,,---,0.00,0.00,VWS V14.00,2013-04-25 01:41:00,
2013-04-24 21:46:00,62.7,45.3,29.67,SSE,163,2.0,4.0,53,0.00,,---,0.00,0.00,VWS V14.00,2013-04-25 01:46:00,
2013-04-24 21:51:00,62.9,45.5,29.67,SSE,164,1.0,6.0,53,0.00,,---,0.00,0.00,VWS V14.00,2013-04-25 01:51:00,
2013-04-24 21:56:00,63.1,45.7,29.67,South,180,4.0,6.0,53,0.00,,---,0.00,0.00,VWS V14.00,2013-04-25 01:56:00,
2013-04-24 22:00:00,40.5,36.7,30.11,East,98,0.0,0.0,86,0.00,,---,0.00,0.00,VWS V14.00,2013-04-25 02:00:00,
2013-04-24 22:01:00,63.7,45.2,29.67,South,173,3.0,6.0,51,0.00,,---,0.00,0.00,VWS V14.00,2013-04-25 02:01:00,
2013-04-24 22:06:00,63.9,46.5,29.66,SSE,163,4.0,11.0,53,0.00,,---,0.00,0.00,VWS V14.00,2013-04-25 02:06:00,
2013-04-24 22:11:00,63.7,46.8,29.64,South,171,7.0,11.0,54,0.00,,---,0.00,0.00,VWS V14.00,2013-04-25 02:11:00,
2013-04-24 22:16:00,63.6,46.7,29.65,SSW,210,4.0,6.0,54,0.00,,---,0.00,0.00,VWS V14.00,2013-04-25 02:16:00,
2013-04-24 22:21:00,63.5,47.1,29.65,SSW,213,6.0,9.0,55,0.00,,---,0.00,0.00,VWS V14.00,2013-04-25 02:21:00,
2013-04-24 22:26:00,63.6,47.2,29.64,SW,223,8.0,9.0,55,0.00,,---,0.00,0.00,VWS V14.00,2013-04-25 02:26:00,
2013-04-24 22:30:00,40.5,36.9,30.10,SE,126,0.0,0.0,87,0.00,,---,0.00,0.00,VWS V14.00,2013-04-25 02:30:00,
2013-04-24 22:31:00,63.6,47.2,29.65,South,169,1.0,9.0,55,0.00,,---,0.00,0.00,VWS V14.00,2013-04-25 02:31:00,
2013-04-24 22:37:00,63.5,47.1,29.64,South,186,8.0,9.0,55,0.00,,---,0.00,0.00,VWS V14.00,2013-04-25 02:37:00,
2013-04-24 22:42:00,63.6,47.2,29.65,South,190,0.0,10.0,55,0.00,,---,0.00,0.00,VWS V14.00,2013-04-25 02:42:00,
2013-04-24 22:47:00,63.6,47.2,29.65,SSW,211,4.0,6.0,55,0.00,,---,0.00,0.00,VWS V14.00,2013-04-25 02:47:00,
2013-04-24 22:52:00,63.6,47.2,29.65,SSE,168,15.0,15.0,55,0.00,,---,0.00,0.00,VWS V14.00,2013-04-25 02:52:00,
2013-04-24 22:57:00,63.8,47.3,29.65,SSW,200,2.0,15.0,55,0.00,,---,0.00,0.00,VWS V14.00,2013-04-25 02:57:00,
2013-04-24 23:00:00,40.7,36.8,30.08,East,90,0.0,0.0,86,0.00,,---,0.00,0.00,VWS V14.00,2013-04-25 03:00:00,
2013-04-24 23:02:00,63.6,47.6,29.66,South,175,11.0,15.0,56,0.00,,---,0.00,0.00,VWS V14.00,2013-04-25 03:02:00,
2013-04-24 23:07:00,63.6,47.6,29.65,SSE,157,5.0,15.0,56,0.00,,---,0.00,0.00,VWS V14.00,2013-04-25 03:07:00,
2013-04-24 23:12:00,63.4,47.9,29.64,SSW,193,4.0,15.0,57,0.00,,---,0.00,0.00,VWS V14.00,2013-04-25 03:12:00,
2013-04-24 23:17:00,63.2,48.2,29.64,SSW,192,3.0,6.0,58,0.00,,---,0.00,0.00,VWS V14.00,2013-04-25 03:17:00,
2013-04-24 23:22:00,63.0,48.5,29.64,SSE,158,5.0,12.0,59,0.00,,---,0.00,0.00,VWS V14.00,2013-04-25 03:22:00,
2013-04-24 23:27:00,62.8,48.3,29.63,SW,227,1.0,12.0,59,0.00,,---,0.00,0.00,VWS V14.00,2013-04-25 03:27:00,
2013-04-24 23:30:00,40.6,37.0,30.07,South,171,0.0,0.0,87,0.00,,---,0.00,0.00,VWS V14.00,2013-04-25 03:30:00,
2013-04-24 23:32:00,62.6,48.5,29.63,SSE,167,7.0,12.0,60,0.00,,---,0.00,0.00,VWS V14.00,2013-04-25 03:32:00,
2013-04-24 23:37:00,62.6,48.5,29.63,West,265,8.0,15.0,60,0.00,,---,0.00,0.00,VWS V14.00,2013-04-25 03:37:00,
2013-04-24 23:42:00,62.5,48.4,29.63,SSE,165,3.0,15.0,60,0.00,,---,0.00,0.00,VWS V14.00,2013-04-25 03:42:00,
2013-04-24 23:47:00,62.3,48.7,29.62,WSW,240,2.0,8.0,61,0.00,,---,0.00,0.00,VWS V14.00,2013-04-25 03:47:00,
2013-04-24 23:52:00,62.2,48.6,29.63,SW,215,5.0,8.0,61,0.00,,---,0.00,0.00,VWS V14.00,2013-04-25 03:52:00,
2013-04-24 23:57:00,62.1,48.5,29.63,SSE,168,7.0,14.0,61,0.00,,---,0.00,0.00,VWS V14.00,2013-04-25 03:57:00,